ALK557 VCBI-EDDF

Flight info

Callsign ALK557
Flight time N/A
Altitude 33000
Route SAGOR A465 MMV/N0482F340 Q24 BPL DCT IBANI P628 VIKIT/N0489F360 P628 RK G202 ZB L750 RANAH B449 MARAD/N0474F380 B449 DUKAN L850 ADEKI N644 LAGAS DCT SARPI UM10 GOKPA UL746 EVGEG/N0464F400 UL746 ODERO DCT OPT DCT IRLOX DCT BALUX DCT BEGLA DCT DITIS DCT RAPET T170 VAGAB/N0373F240 T170 GAPLA T178 KERAX KERAX5A
Aircraft A333/H-SDE3GHIJ2J3J5M1RVWXY/LB2D1

Departure

Time 2026-05-06 16:00
Airport Bandaranaike International Colombo Airport (VCBI)

Arrival

Time N/A
Airport Frankfurt Main Airport (EDDF)
Time Latitude Longitude Altitude Speed Heading
2026-05-06 15:34 7.17600 79.88405 30 ft 0 kts 37°
2026-05-06 15:47 7.17596 79.88402 31 ft 3 kts 39°
2026-05-06 15:47 7.17577 79.88383 31 ft 4 kts 51°
2026-05-06 15:47 7.17561 79.88366 27 ft 4 kts
2026-05-06 15:47 7.17546 79.88370 28 ft 4 kts 328°
2026-05-06 15:48 7.17525 79.88386 28 ft 4 kts 312°
2026-05-06 15:48 7.17508 79.88408 28 ft 4 kts 302°
2026-05-06 15:48 7.17497 79.88425 29 ft 0 kts 307°
2026-05-06 15:50 7.17500 79.88422 30 ft 2 kts 307°
2026-05-06 15:51 7.17505 79.88414 29 ft 1 kts 307°
2026-05-06 15:51 7.17519 79.88396 29 ft 6 kts 307°
2026-05-06 15:51 7.17553 79.88351 30 ft 10 kts 307°
2026-05-06 15:51 7.17595 79.88295 31 ft 10 kts 307°
2026-05-06 15:52 7.17645 79.88258 31 ft 8 kts 347°
2026-05-06 15:52 7.17692 79.88276 31 ft 7 kts 38°
2026-05-06 15:52 7.17729 79.88306 31 ft 7 kts 38°
2026-05-06 15:52 7.17767 79.88335 31 ft 7 kts 38°
2026-05-06 15:53 7.17810 79.88368 31 ft 10 kts 37°
2026-05-06 15:53 7.17879 79.88421 31 ft 15 kts 37°
2026-05-06 15:53 7.17973 79.88493 31 ft 19 kts 37°
2026-05-06 15:53 7.18091 79.88583 31 ft 23 kts 36°
2026-05-06 15:54 7.18217 79.88678 31 ft 22 kts 37°
2026-05-06 15:54 7.18336 79.88770 31 ft 21 kts 38°
2026-05-06 15:54 7.18449 79.88856 31 ft 20 kts 37°
2026-05-06 15:54 7.18555 79.88937 31 ft 19 kts 37°
2026-05-06 15:55 7.18656 79.89014 31 ft 18 kts 37°
2026-05-06 15:55 7.18751 79.89087 31 ft 17 kts 36°
2026-05-06 15:55 7.18843 79.89157 31 ft 16 kts 38°
2026-05-06 15:55 7.18934 79.89226 31 ft 16 kts 37°
2026-05-06 15:56 7.19025 79.89296 31 ft 17 kts 37°
2026-05-06 15:56 7.19116 79.89366 31 ft 16 kts 37°
2026-05-06 15:56 7.19158 79.89398 31 ft 0 kts 37°
2026-05-06 15:56 7.19160 79.89399 30 ft 0 kts 37°
2026-05-06 15:57 7.19162 79.89401 30 ft 1 kts 37°
2026-05-06 15:57 7.19168 79.89405 30 ft 2 kts 35°
2026-05-06 15:57 7.19192 79.89409 30 ft 4 kts 356°
2026-05-06 15:57 7.19219 79.89390 30 ft 5 kts 310°
2026-05-06 15:58 7.19246 79.89358 30 ft 7 kts 310°
2026-05-06 15:58 7.19277 79.89318 30 ft 7 kts 307°
2026-05-06 15:58 7.19292 79.89285 30 ft 2 kts 262°
2026-05-06 15:58 7.19284 79.89272 30 ft 2 kts 235°
2026-05-06 15:59 7.19267 79.89257 31 ft 7 kts 219°
2026-05-06 15:59 7.19137 79.89156 31 ft 49 kts 218°
2026-05-06 15:59 7.18712 79.88834 33 ft 103 kts 216°
2026-05-06 15:59 7.18005 79.88291 33 ft 152 kts 218°
2026-05-06 16:00 7.17072 79.87578 280 ft 176 kts 215°
2026-05-06 16:00 7.16103 79.86827 924 ft 172 kts 216°
2026-05-06 16:00 7.15150 79.86093 1544 ft 178 kts 216°
2026-05-06 16:00 7.14265 79.85140 1896 ft 200 kts 244°
2026-05-06 16:01 7.14175 79.83691 2027 ft 225 kts 287°
2026-05-06 16:01 7.15039 79.82287 2150 ft 248 kts 306°
2026-05-06 16:01 7.16355 79.81073 2350 ft 267 kts 332°
2026-05-06 16:01 7.18149 79.80526 2771 ft 273 kts 352°
2026-05-06 16:02 7.20045 79.80424 3293 ft 274 kts
2026-05-06 16:02 7.21948 79.80571 3840 ft 274 kts
2026-05-06 16:02 7.23840 79.80826 4395 ft 275 kts
2026-05-06 16:02 7.25737 79.81108 4951 ft 276 kts
2026-05-06 16:03 7.27647 79.81376 5481 ft 278 kts
2026-05-06 16:03 7.29568 79.81618 6058 ft 279 kts
2026-05-06 16:03 7.31498 79.81836 6592 ft 280 kts
2026-05-06 16:03 7.33442 79.82037 7118 ft 282 kts
2026-05-06 16:04 7.35402 79.82229 7653 ft 284 kts
2026-05-06 16:04 7.37378 79.82419 8189 ft 286 kts
2026-05-06 16:04 7.39365 79.82608 8744 ft 288 kts
2026-05-06 16:04 7.41365 79.82800 9298 ft 290 kts
2026-05-06 16:05 7.43383 79.82994 9829 ft 293 kts
2026-05-06 16:05 7.45426 79.83192 10226 ft 300 kts
2026-05-06 16:05 7.47550 79.83399 10424 ft 314 kts
2026-05-06 16:05 7.49772 79.83616 10607 ft 328 kts
2026-05-06 16:06 7.52059 79.83839 10777 ft 341 kts
2026-05-06 16:06 7.54468 79.84074 10946 ft 354 kts
2026-05-06 16:06 7.56962 79.84317 11120 ft 366 kts
2026-05-06 16:06 7.59525 79.84566 11420 ft 373 kts
2026-05-06 16:07 7.62120 79.84819 11839 ft 376 kts
2026-05-06 16:07 7.64732 79.85074 12274 ft 379 kts
2026-05-06 16:07 7.67369 79.85331 12683 ft 383 kts
2026-05-06 16:07 7.70030 79.85590 13099 ft 386 kts
2026-05-06 16:08 7.72712 79.85852 13529 ft 388 kts
2026-05-06 16:08 7.75413 79.86115 13908 ft 391 kts
2026-05-06 16:08 7.78130 79.86381 14301 ft 393 kts
2026-05-06 16:08 7.80860 79.86647 14684 ft 395 kts
2026-05-06 16:09 7.83604 79.86915 15065 ft 398 kts
2026-05-06 16:09 7.86366 79.87185 15437 ft 400 kts
2026-05-06 16:09 7.89144 79.87456 15814 ft 402 kts
2026-05-06 16:09 7.91936 79.87729 16171 ft 404 kts
2026-05-06 16:10 7.94742 79.88003 16553 ft 406 kts
2026-05-06 16:10 7.97562 79.88278 16914 ft 408 kts
2026-05-06 16:10 8.00400 79.88556 17270 ft 411 kts
2026-05-06 16:10 8.03084 79.88818 17596 ft 413 kts